Theta_e
347 348 346 345 345 344 343 342 341 341 339 338 338 337 337 337 335 335 335 335 336 335 335 335 334 334 334 333 333 333 334 336 337 337 337 337 337 337 336 336 336 336 335 336 336 335 334 334 332 331 331 332 331 328 325 324 324 325 325 325 324 324 325 326 327 327 325 325 325 326 327 329 332 333 335 336 335 335 338 341 344 346 345 344 343
348 348 346 345 345 344 343 342 341 340 339 338 339 339 339 337 334 334 336 335 335 335 335 335 334 333 333 333 333 333 334 334 336 337 337 337 337 336 336 336 337 336 335 335 335 334 333 334 332 331 331 331 330 329 327 325 325 325 325 325 325 324 324 325 326 326 326 325 325 325 325 327 330 333 334 336 336 337 338 339 342 344 345 344 343
349 347 346 345 345 344 343 342 342 341 340 339 340 340 338 336 334 335 335 335 336 335 335 335 334 333 333 332 333 334 334 334 334 336 337 337 337 336 336 336 336 336 335 334 334 334 334 333 332 331 331 331 330 329 327 326 325 325 325 325 325 325 325 325 325 326 326 325 324 324 325 326 329 332 334 335 336 337 338 339 340 342 342 343 343
348 346 345 345 345 344 343 343 343 341 340 340 340 338 337 336 336 335 334 333 334 333 333 333 332 331 331 331 333 334 333 333 333 334 335 337 337 336 336 335 335 334 333 334 334 333 334 333 332 331 331 331 330 329 328 326 325 325 324 324 325 325 325 325 325 325 325 325 325 324 324 325 327 330 333 335 336 337 337 338 339 340 341 341 342
348 346 345 345 345 345 344 344 342 341 340 339 338 338 337 336 334 332 331 332 332 332 332 331 330 330 330 332 333 333 332 332 332 332 333 334 335 336 336 334 332 331 331 333 333 333 333 333 331 331 331 330 330 329 327 326 324 324 324 324 325 325 326 326 326 325 325 325 325 324 324 325 326 329 332 334 335 336 336 337 339 340 340 341 342
347 345 345 345 345 344 343 342 341 340 338 338 337 337 336 334 332 331 331 333 333 332 332 330 330 330 330 332 333 332 331 331 331 332 333 333 334 335 336 334 330 328 329 330 331 332 333 332 331 331 330 329 329 328 328 326 325 325 325 325 326 326 326 326 326 326 325 325 325 325 325 325 326 329 331 333 335 336 337 338 339 340 341 342 342
346 346 346 346 345 343 342 342 341 339 338 338 337 337 336 334 332 332 332 333 332 332 332 331 331 330 330 330 330 330 330 330 330 332 333 334 334 334 334 331 327 325 326 329 331 332 331 331 331 331 330 329 328 328 328 327 327 327 327 327 327 327 327 327 326 326 325 325 325 325 325 325 326 328 330 332 334 336 337 338 339 340 341 341 343
346 346 345 346 345 343 341 341 340 338 338 338 337 337 335 334 333 333 332 332 332 333 332 332 331 330 330 330 330 330 330 330 331 332 333 334 334 334 332 329 326 325 326 328 330 330 330 330 331 331 330 330 328 328 328 328 329 329 328 328 328 328 328 327 326 325 325 325 324 324 325 326 327 328 330 332 334 335 336 338 339 340 340 341 343
346 345 345 346 346 344 342 341 339 338 337 337 337 336 334 334 334 333 332 333 333 334 333 332 331 330 330 330 331 331 330 331 332 333 333 334 333 332 331 329 328 327 326 326 327 329 330 330 330 330 330 330 329 329 329 329 330 330 329 329 329 329 327 326 325 325 324 324 324 325 325 325 326 327 329 331 333 334 335 337 338 339 340 341 342
346 347 345 345 346 344 342 341 339 338 337 337 337 336 334 334 333 334 334 334 334 334 333 332 331 330 331 331 331 330 330 331 332 332 332 333 332 332 331 330 329 328 327 326 327 329 330 330 330 330 330 330 330 330 329 330 330 330 330 329 330 329 327 326 325 324 324 324 324 325 325 325 326 326 328 329 331 332 334 336 337 338 339 341 341
345 344 340 339 342 343 340 339 338 337 337 336 336 336 335 334 334 335 335 335 335 334 333 332 331 331 331 330 330 330 331 331 330 330 331 331 331 332 331 329 328 327 327 327 327 329 330 330 330 329 330 330 330 331 330 330 331 331 330 330 330 328 326 325 324 324 324 324 324 325 325 325 325 326 327 328 329 330 333 335 337 338 339 340 341
338 336 334 335 338 338 337 336 336 335 336 336 336 335 334 335 335 335 335 335 335 334 333 332 331 330 331 330 330 330 330 329 329 329 330 330 330 331 330 329 327 327 326 326 327 329 330 329 329 329 329 329 329 331 330 330 331 331 331 331 329 326 324 323 323 323 323 324 325 325 325 325 325 326 326 327 328 329 331 333 336 338 339 339 340
333 332 333 335 337 336 334 335 335 335 336 336 335 335 335 335 336 336 336 336 335 334 333 332 331 330 330 330 331 329 329 329 329 329 329 328 329 330 329 328 327 327 326 326 328 329 329 329 329 328 327 328 329 329 329 330 330 331 331 329 325 323 322 322 322 323 324 324 325 325 325 325 325 325 326 326 327 328 329 331 333 336 338 338 339
335 334 336 338 338 336 336 336 335 335 336 335 335 335 335 336 336 336 336 336 335 335 333 332 331 330 331 331 330 329 329 330 330 329 328 327 328 328 328 328 327 327 327 327 328 329 329 329 329 328 328 328 328 328 329 330 331 330 329 327 323 322 322 321 321 323 324 324 325 325 325 325 325 325 325 325 325 326 327 328 330 334 337 338 338
339 339 340 340 339 338 338 338 337 337 337 336 336 336 336 336 336 336 337 336 336 335 333 332 331 331 331 330 329 329 330 330 329 328 328 327 327 327 327 328 327 327 328 329 329 330 329 329 328 329 328 327 327 328 330 331 331 330 328 325 323 322 320 320 321 323 324 324 325 325 325 325 325 325 326 326 326 326 326 327 328 331 334 336 338
343 343 342 342 340 339 339 339 338 338 338 337 337 337 336 336 336 337 337 337 336 335 333 332 331 330 330 330 330 330 330 329 328 328 328 327 326 326 327 327 327 327 329 330 330 330 329 329 329 329 327 326 328 329 331 331 330 328 326 324 322 321 320 320 322 323 323 324 324 325 325 325 326 326 326 327 326 326 326 326 327 328 329 334 338
345 346 343 342 341 340 340 339 339 338 338 338 337 337 337 337 337 337 337 337 336 335 334 332 331 331 330 330 330 330 329 329 328 328 328 327 326 326 327 327 327 327 328 328 329 328 329 330 330 327 325 327 328 329 330 329 326 324 323 323 323 322 321 321 322 322 322 323 323 324 325 325 325 326 326 326 327 327 326 325 326 327 327 332 337
345 346 345 344 343 342 341 340 339 338 338 338 337 338 338 337 337 338 338 338 337 336 334 333 331 331 330 330 330 329 329 329 328 328 328 328 327 327 327 327 327 326 326 325 326 327 329 329 327 324 325 326 326 327 327 325 324 323 323 324 324 324 323 323 324 323 322 321 322 323 324 324 324 325 325 325 326 327 326 325 326 327 328 331 336
345 345 345 344 344 343 342 341 340 339 338 338 338 338 338 338 338 338 338 338 337 336 335 333 331 331 329 329 329 329 329 330 329 330 329 328 327 327 328 328 327 325 324 323 323 325 326 325 323 324 326 325 325 327 327 324 324 325 325 325 325 324 324 325 326 325 323 322 323 323 323 322 323 324 325 324 324 326 327 328 328 327 328 332 336
344 344 344 344 344 345 344 342 340 339 338 338 338 338 338 338 338 339 339 338 337 336 335 333 331 330 329 329 328 328 329 330 330 331 329 327 326 327 329 329 325 322 321 322 321 321 321 321 321 322 324 324 325 328 326 323 324 326 326 325 324 324 324 325 325 324 323 322 323 323 322 322 322 323 324 324 324 325 326 329 329 328 328 332 336
344 343 344 345 345 345 345 343 342 340 339 338 338 338 338 339 338 338 338 337 336 335 334 333 331 330 330 329 329 328 328 329 329 330 328 326 327 329 329 327 322 320 320 320 320 320 320 320 321 322 324 325 326 326 323 323 325 326 325 324 323 323 324 324 324 323 322 322 322 323 322 321 321 322 323 324 324 324 325 327 329 329 328 332 336
341 342 343 344 345 345 344 343 342 341 339 338 337 337 338 337 337 336 335 334 334 334 334 333 332 331 330 329 329 329 328 328 329 329 327 327 329 330 328 324 320 320 320 320 320 321 321 322 323 325 326 326 325 324 323 324 326 325 323 323 322 322 322 323 323 322 321 322 322 322 322 321 321 322 323 324 324 323 323 325 328 329 329 331 335
343 343 343 345 345 345 344 342 341 340 339 338 337 337 337 337 336 335 333 333 333 333 334 334 333 331 330 330 330 329 328 328 330 329 327 328 329 329 326 322 320 320 321 321 322 322 323 324 324 324 324 323 323 323 325 326 325 323 321 321 320 320 320 321 322 321 321 321 322 322 322 321 321 322 322 323 324 323 323 324 328 331 330 331 335
346 346 346 347 347 346 343 341 341 340 339 338 336 335 336 336 335 334 333 332 331 329 331 333 333 331 331 331 330 329 328 329 330 329 328 328 328 326 323 320 319 320 321 322 323 323 323 323 323 323 322 323 325 325 326 325 323 321 320 319 318 319 319 318 319 320 320 321 322 322 322 321 321 321 322 322 323 323 322 324 329 332 331 332 335
342 344 346 347 347 346 344 341 340 339 337 336 335 334 335 335 334 333 333 332 331 328 328 329 331 331 331 331 330 328 329 330 330 328 327 327 327 325 322 319 319 320 322 322 322 322 322 321 322 322 323 325 326 326 325 324 322 320 320 319 317 317 317 317 318 318 319 320 320 321 321 321 320 320 321 322 323 323 322 323 329 334 334 333 335
340 342 344 344 344 345 344 342 341 339 337 337 335 333 333 334 333 332 333 332 331 329 328 327 328 330 331 331 330 329 329 330 331 329 327 326 326 323 320 318 318 320 321 321 321 321 321 321 322 323 324 325 326 326 326 325 321 319 320 318 316 316 316 317 317 318 318 319 320 320 321 320 320 319 320 321 323 323 322 322 327 333 336 335 335
342 343 343 344 345 346 345 343 342 341 339 339 338 334 333 333 333 332 332 331 330 329 327 327 328 330 331 331 330 330 329 328 329 329 327 326 323 320 318 318 317 318 320 320 320 320 321 323 324 324 325 325 325 325 324 322 319 318 318 317 316 315 315 316 317 317 318 318 319 319 320 320 319 319 319 321 323 323 322 321 323 329 335 337 337
342 343 343 344 345 345 343 342 341 340 339 338 336 334 333 332 332 331 331 330 330 329 328 329 330 330 331 331 330 329 328 326 327 327 325 323 321 319 318 317 317 318 319 319 319 320 322 324 324 323 323 322 321 321 321 319 317 317 317 316 315 314 314 314 315 316 317 317 317 319 319 319 319 319 319 320 322 323 322 321 321 325 330 335 338
339 339 341 342 342 342 341 341 340 338 336 334 333 331 331 331 331 331 332 331 331 330 329 330 330 329 329 329 328 327 326 326 326 324 322 321 320 318 317 316 317 318 318 318 320 322 323 323 321 320 320 319 319 318 318 317 317 315 315 315 314 312 312 313 313 314 315 316 316 317 318 318 318 319 319 320 322 323 322 320 320 321 323 327 331
335 335 337 337 337 338 339 339 337 336 334 333 331 329 328 327 328 330 331 332 330 327 327 327 327 326 326 325 325 326 326 326 325 323 321 320 318 317 317 317 318 319 319 319 321 322 322 320 318 318 317 316 316 316 315 315 315 313 313 314 312 310 310 311 311 312 313 314 314 315 317 317 317 318 319 319 320 322 322 321 320 320 320 321 323
334 334 334 334 335 336 336 335 335 335 334 333 332 329 327 326 325 325 326 327 326 324 323 323 324 324 323 322 322 323 324 324 323 321 320 318 317 317 317 318 318 318 318 320 321 320 318 317 316 316 315 314 314 314 313 312 312 311 311 311 310 308 308 309 310 311 312 312 312 313 314 316 316 317 318 318 319 321 322 322 321 320 319 320 321
332 333 332 332 334 335 335 335 335 335 334 334 333 330 329 326 322 320 321 322 322 321 321 322 321 321 321 321 320 320 320 320 319 318 317 316 316 318 318 318 318 317 318 320 319 317 316 315 314 314 313 312 312 311 310 310 310 309 309 309 307 306 306 307 308 309 310 310 310 311 312 314 315 316 317 317 318 319 321 322 322 322 320 320 320
331 331 330 331 332 332 333 335 335 334 334 333 331 330 329 327 324 320 318 318 319 319 319 319 319 319 319 318 318 318 317 316 316 315 315 315 317 318 318 318 318 318 318 318 317 315 314 313 312 311 311 310 309 308 308 308 308 308 308 308 306 305 305 306 306 307 308 308 309 309 310 311 312 314 315 316 316 317 319 321 322 322 322 321 320
332 332 332 331 332 331 331 333 334 333 331 330 329 329 329 328 327 323 319 316 316 317 317 318 318 317 317 316 316 316 315 314 314 314 315 315 317 318 319 319 319 317 316 315 315 314 313 312 310 310 309 308 307 307 306 306 306 306 306 307 306 304 304 304 305 306 307 307 307 308 308 309 310 311 314 315 315 315 317 319 320 321 322 323 322
333 333 333 332 332 332 331 332 332 332 331 329 329 329 328 328 328 327 323 320 318 317 316 316 316 316 315 314 314 313 313 313 314 314 315 315 316 317 318 318 317 315 314 314 313 313 312 311 310 309 309 308 307 307 306 305 304 303 304 305 304 302 302 303 303 304 305 305 306 306 307 308 308 309 311 314 314 314 315 317 318 319 319 321 323
333 332 332 332 332 332 331 331 330 331 331 330 329 328 328 327 327 327 326 325 323 320 317 316 315 314 314 313 313 313 313 313 313 313 314 314 315 316 315 314 313 313 312 312 312 311 311 311 310 309 308 307 306 306 305 304 303 302 302 303 302 301 301 301 302 303 303 304 304 305 306 307 308 308 309 311 313 314 314 314 316 317 317 318 320
332 332 332 332 330 330 331 331 329 328 329 328 327 326 327 327 327 327 327 326 325 322 318 315 314 314 314 314 314 313 313 313 313 313 313 313 313 314 313 312 311 311 311 310 310 310 309 309 309 308 307 306 305 304 304 303 302 301 300 300 301 301 300 299 300 302 302 303 303 304 304 305 307 307 308 309 311 312 312 312 313 315 315 315 316
331 331 332 330 328 328 330 329 328 327 327 327 326 325 326 326 327 326 326 325 325 322 319 316 315 316 316 316 315 315 315 314 314 314 314 312 312 312 311 310 310 310 309 309 308 308 307 307 306 306 305 304 303 303 302 301 301 301 299 298 299 300 299 299 299 301 301 302 302 302 303 304 305 306 307 308 309 311 311 311 311 312 313 313 313
330 330 330 328 327 327 328 328 327 326 326 325 325 325 325 325 324 324 324 323 323 321 319 317 316 317 316 315 314 314 313 314 315 315 313 311 311 311 310 310 309 309 309 308 307 306 306 305 304 304 303 303 302 302 301 300 299 299 298 297 296 298 298 299 299 300 301 301 302 302 302 303 303 304 306 307 308 309 310 310 310 310 311 311 311
330 329 328 327 327 327 326 327 326 326 325 325 324 324 324 323 323 323 322 321 320 319 318 317 316 315 314 313 312 312 312 313 314 313 311 310 310 310 309 309 309 308 308 308 306 305 304 304 303 303 302 302 301 300 299 298 297 297 297 296 294 295 296 298 298 299 300 301 301 302 302 302 302 303 304 305 306 307 308 309 309 309 309 310 310
329 328 327 326 326 326 326 325 325 325 325 324 323 323 322 322 322 322 321 320 319 317 316 315 313 312 311 310 310 311 312 311 311 310 309 309 309 308 308 308 307 306 306 306 305 304 303 303 302 302 301 301 300 298 297 296 295 295 296 294 291 291 294 297 298 298 299 300 301 301 302 302 302 302 303 303 304 305 306 307 308 308 308 309 309
328 327 326 325 325 325 325 324 324 324 324 323 323 322 322 321 321 320 320 319 318 316 314 313 311 310 309 309 310 311 311 310 309 308 308 308 307 306 306 306 305 305 304 304 304 303 303 303 302 301 301 300 299 297 296 294 292 292 292 291 288 289 294 297 298 298 299 300 300 301 302 302 301 302 302 302 303 304 304 305 306 306 306 308 308
327 326 325 325 325 324 324 323 323 322 322 322 321 321 320 320 319 319 319 319 318 317 314 312 310 309 308 309 309 310 309 309 308 307 306 306 306 305 305 304 304 303 303 303 303 303 303 302 302 300 300 299 298 297 296 293 290 288 289 288 287 289 294 297 298 298 299 299 300 301 302 301 300 301 302 302 302 303 303 303 304 304 304 305 307
325 325 324 323 323 323 322 322 322 321 321 321 320 320 320 319 318 317 316 316 316 316 314 312 310 308 308 307 308 308 308 308 307 306 306 306 305 305 305 304 303 303 302 302 302 302 302 302 301 300 298 298 297 296 295 292 288 287 288 287 287 290 294 297 298 298 298 299 300 301 301 301 299 299 301 302 301 302 302 303 303 303 303 303 305
324 324 323 323 323 322 321 321 321 320 320 320 319 319 318 316 315 314 313 313 313 314 314 312 310 309 308 307 307 308 308 307 307 306 306 305 304 304 304 304 303 303 303 302 301 301 301 301 300 299 298 296 295 295 294 291 288 287 287 287 288 290 294 296 297 298 298 299 300 300 301 301 299 298 300 302 301 301 302 302 302 302 302 302 303
323 322 322 322 322 321 321 321 319 318 318 317 316 315 315 314 313 313 313 312 312 313 313 313 311 309 309 309 308 307 307 307 306 306 305 305 304 304 304 304 303 303 302 302 301 301 300 300 300 299 298 296 295 294 293 290 287 287 287 287 288 291 294 296 297 298 298 299 300 300 301 301 299 298 299 301 300 300 301 301 301 302 302 302 302
322 321 320 321 320 320 320 320 318 316 316 316 315 314 314 313 313 313 313 313 312 312 312 312 311 310 309 308 307 307 306 306 306 306 305 305 304 304 304 304 303 302 302 301 300 300 299 299 299 298 297 296 295 294 292 288 286 287 288 287 287 290 293 296 297 298 298 299 300 299 300 300 298 297 298 299 299 299 300 301 301 301 301 301 302
320 319 318 319 319 318 319 319 317 316 315 315 314 314 314 313 313 313 313 313 313 311 310 310 310 310 309 308 307 307 306 306 305 305 305 304 304 304 304 303 303 302 301 300 299 299 299 299 298 298 297 297 296 295 292 289 286 286 287 287 287 289 292 295 297 298 298 299 299 299 299 298 298 298 298 298 298 298 299 299 300 300 300 301 301
317 317 316 317 316 316 317 317 316 315 315 314 313 313 313 313 312 312 312 312 311 310 309 308 309 309 308 307 307 307 306 306 306 306 305 304 303 303 303 302 302 301 301 300 299 298 297 297 298 298 297 297 296 295 293 291 288 287 287 287 287 288 292 295 297 297 298 299 298 298 298 297 296 297 298 297 296 297 298 298 298 299 300 300 301
314 315 315 315 315 315 315 315 315 315 314 313 313 313 313 312 312 312 312 311 309 309 308 308 308 309 308 307 307 307 306 306 306 306 305 304 303 303 303 302 301 300 300 299 298 298 297 297 297 297 297 297 296 295 294 293 290 287 286 287 287 288 292 295 296 297 298 298 297 297 297 296 295 297 298 296 295 296 297 297 298 298 299 299 300
311 311 311 311 312 313 313 314 314 314 314 313 312 312 312 312 311 311 310 309 308 308 308 308 308 308 307 307 306 306 305 305 305 305 304 304 304 303 302 301 300 300 300 299 298 298 297 296 297 296 296 296 296 295 294 293 291 289 288 287 287 287 291 295 296 296 297 298 296 295 295 294 294 296 297 296 294 295 296 296 297 298 298 299 299
Wind_Speed
25 23 22 19 18 16 16 15 14 12 11 10 10 10 9 10 11 11 11 11 11 12 10 8 7 8 9 9 8 7 7 8 8 9 9 9 8 8 9 10 11 10 10 11 11 11 10 10 10 10 9 8 8 9 11 12 13 14 14 13 13 13 13 13 11 13 22 28 29 31 30 29 30 30 30 33 34 31 30 31 32 33 36 37 36
26 24 23 21 19 17 17 17 15 13 12 11 10 10 11 11 12 12 13 13 13 14 14 12 11 10 10 11 10 8 6 6 7 9 9 9 8 8 9 10 11 11 12 12 11 12 11 11 11 11 10 9 9 10 12 12 13 16 17 15 16 16 15 15 15 13 18 26 31 32 30 27 28 29 28 30 32 31 30 31 32 32 33 36 37
27 25 24 22 20 18 17 16 15 13 12 12 11 12 12 13 13 14 15 14 14 16 16 14 13 11 12 14 13 9 7 6 7 9 10 9 9 9 10 10 11 11 13 13 12 12 12 12 12 13 12 11 12 12 12 13 14 16 18 18 18 19 18 17 18 17 18 23 29 32 30 28 28 29 28 29 30 30 31 32 33 33 33 35 37
28 26 25 22 20 19 17 16 16 14 13 14 14 14 13 14 14 11 9 10 11 11 10 9 9 10 11 14 14 11 8 6 7 9 9 9 10 11 11 12 12 12 14 14 12 11 13 14 13 13 13 13 13 13 12 14 15 16 18 19 19 20 20 19 19 21 21 23 27 30 30 29 28 28 28 28 29 28 30 32 33 33 34 35 36
29 27 26 23 21 20 18 17 17 16 15 15 16 15 14 14 10 6 4 4 3 4 5 5 6 8 8 9 9 9 7 7 8 9 9 10 11 12 12 12 12 13 14 14 13 12 13 14 15 15 15 14 14 14 14 15 16 17 18 19 20 20 21 21 21 23 24 24 27 30 31 29 28 28 27 27 28 28 29 31 32 32 33 35 36
30 29 26 25 22 21 20 21 19 18 17 17 15 14 14 13 10 7 7 6 5 6 6 5 6 7 6 4 4 7 8 8 10 10 10 10 12 12 11 11 11 13 13 14 13 13 13 15 16 15 13 13 14 16 16 16 17 19 19 20 21 21 21 22 22 23 25 26 26 28 29 27 26 26 26 25 27 27 27 28 30 31 31 32 34
31 29 27 26 26 23 22 23 22 19 18 17 14 14 14 13 12 10 10 10 10 8 6 6 7 7 7 8 10 11 10 10 11 11 10 10 11 11 10 10 11 13 14 14 13 13 14 15 15 15 15 16 16 16 17 18 19 20 21 21 22 22 21 23 23 23 25 25 24 24 25 26 25 25 26 26 26 27 27 25 26 29 30 30 31
32 30 28 28 28 25 24 25 23 20 19 17 16 16 16 15 14 14 14 13 11 8 6 7 8 9 11 13 12 10 10 10 9 9 10 11 11 9 8 9 11 13 14 15 15 14 15 15 15 16 17 18 16 16 17 19 20 21 21 22 22 21 21 23 23 23 24 23 23 23 23 24 24 24 25 24 22 24 25 24 24 27 27 28 29
33 31 29 28 30 29 27 26 23 20 19 19 18 18 18 17 16 16 15 12 9 8 9 9 10 12 12 11 10 9 10 10 9 9 10 11 10 9 9 9 10 12 14 15 16 15 15 15 14 16 17 18 17 17 18 19 19 19 21 22 22 21 22 23 23 23 22 21 22 22 21 21 22 22 22 22 21 23 25 24 24 26 27 27 30
33 31 27 26 30 31 28 25 23 21 22 22 22 21 19 18 17 16 14 12 11 11 11 11 11 12 11 11 11 11 10 10 10 10 10 10 10 10 10 10 10 11 13 14 15 15 15 15 15 18 19 19 18 18 18 18 18 19 21 21 21 21 22 24 24 23 21 20 21 22 19 19 22 22 21 23 25 26 26 25 24 25 26 23 26
32 30 23 22 27 30 28 26 24 24 24 23 22 21 19 17 17 16 14 14 13 12 11 12 12 11 11 12 13 12 11 10 11 11 11 12 12 12 11 11 11 11 12 13 14 14 15 16 17 19 20 19 17 18 18 17 18 20 20 20 20 22 23 24 25 24 22 20 22 23 20 20 23 25 24 24 25 26 26 25 24 24 22 16 16
26 23 17 19 26 28 27 26 26 25 24 23 21 20 18 18 18 17 17 16 14 13 12 13 12 12 13 13 12 12 12 12 12 12 11 10 11 12 11 11 11 12 12 13 13 14 15 17 18 19 20 19 18 17 18 18 18 20 19 20 22 24 22 22 23 25 24 22 23 24 23 23 25 26 24 24 24 26 27 27 25 23 21 18 16
23 18 15 22 29 28 26 27 26 25 24 22 21 20 19 19 20 20 19 17 15 14 13 13 13 13 13 12 12 13 14 14 11 8 7 7 8 9 11 12 12 12 13 13 13 14 15 17 18 20 19 18 17 16 16 17 18 19 20 21 24 23 22 22 22 22 23 23 24 26 28 27 26 27 28 27 27 27 26 27 27 24 22 22 23
24 21 22 28 31 28 26 26 26 25 24 23 22 22 22 22 22 21 20 17 16 15 14 13 13 12 11 11 13 15 16 13 9 7 8 9 8 8 10 12 13 13 13 13 13 14 16 17 18 19 18 17 17 16 16 16 18 19 21 23 24 22 22 24 23 21 22 23 24 28 32 33 31 32 34 32 30 28 27 28 28 25 24 25 27
24 26 28 30 30 28 28 27 27 26 24 23 24 24 24 24 24 22 20 18 17 16 15 13 12 11 11 13 15 16 14 11 9 10 10 9 8 9 10 11 13 13 13 13 14 15 16 17 17 17 18 18 18 16 15 16 18 20 23 24 23 21 22 24 24 23 24 26 28 31 34 36 36 36 37 36 33 31 31 32 32 30 28 27 27
25 28 29 30 29 29 28 27 27 27 26 26 26 27 27 27 26 23 21 20 18 17 16 15 13 13 14 15 16 15 13 11 10 11 10 8 8 9 10 10 11 12 13 14 16 17 17 16 15 16 18 20 18 15 14 16 19 22 24 23 20 20 22 23 24 25 28 31 33 34 35 36 37 37 37 36 36 36 34 34 34 33 29 24 22
27 30 30 31 30 29 29 29 28 28 27 27 28 29 29 28 26 24 22 21 20 18 18 16 15 16 16 15 14 13 12 11 10 10 9 8 9 8 8 8 9 11 13 14 16 17 16 14 14 16 18 17 15 14 14 17 20 21 20 19 18 20 23 24 25 27 30 33 35 35 35 36 35 35 36 34 34 35 32 32 33 30 24 17 14
27 30 32 31 30 30 30 29 29 29 29 30 31 31 29 28 27 25 23 22 21 20 19 18 16 15 14 13 13 13 13 12 10 9 10 10 10 7 6 6 8 11 12 14 15 16 15 15 15 15 15 14 15 15 15 18 19 17 15 15 18 21 23 25 27 29 31 34 35 34 35 36 34 34 34 33 33 32 29 32 34 29 23 18 14
28 31 32 32 30 29 29 30 30 30 31 32 32 30 29 28 26 24 23 22 21 21 20 19 18 17 15 15 14 12 12 10 9 9 10 11 9 7 6 6 9 11 13 15 16 16 17 17 15 13 13 16 17 16 17 19 17 13 12 14 16 20 23 24 26 28 30 33 34 34 35 37 35 34 34 34 33 31 27 28 33 31 26 22 19
30 32 31 29 28 28 29 30 31 32 34 35 34 32 31 29 26 24 23 21 21 21 21 21 20 17 16 15 12 9 8 8 9 10 10 10 8 7 6 6 9 11 13 15 17 18 19 17 14 12 15 17 16 17 20 20 15 12 12 13 15 18 21 23 23 24 27 30 32 33 35 37 37 36 35 34 34 32 28 25 28 34 30 25 24
29 29 28 28 27 28 29 30 33 36 35 30 25 22 22 21 20 20 19 18 20 21 21 21 20 16 12 11 10 9 8 8 10 10 10 8 7 6 6 6 9 11 13 14 16 18 17 16 14 14 15 16 17 20 23 18 12 10 13 14 15 17 19 20 20 22 24 27 30 32 34 37 38 37 36 35 35 34 31 27 25 33 34 30 26
28 28 27 27 27 28 30 32 31 25 17 9 7 9 10 11 10 10 14 18 19 18 16 16 16 15 13 11 10 10 10 10 10 9 8 6 5 5 5 6 9 12 13 15 15 15 16 16 15 14 15 17 20 21 19 12 8 10 13 14 15 16 17 17 18 20 23 25 27 29 32 35 36 38 38 37 37 37 35 30 24 29 36 35 30
23 26 27 27 28 29 29 26 19 14 12 11 11 12 12 10 9 10 14 16 14 13 11 11 11 12 13 12 12 12 11 10 9 8 7 6 6 5 5 8 10 11 12 13 14 15 15 14 14 14 17 19 18 15 11 6 6 10 13 15 16 16 16 16 17 19 21 23 25 27 29 32 35 36 38 39 40 40 38 33 22 25 34 36 34
11 14 17 18 21 23 20 14 10 11 14 12 9 10 13 13 11 11 12 11 10 14 17 13 10 10 11 12 12 10 9 9 8 7 7 7 6 5 6 9 10 10 11 12 12 13 13 13 14 16 16 14 12 8 4 4 8 12 14 18 19 18 18 19 19 19 20 21 23 26 27 30 34 36 38 40 40 38 38 32 18 20 32 34 35
7 8 6 6 8 10 11 9 6 6 6 5 4 9 14 16 14 12 11 11 10 13 18 19 15 12 10 11 11 8 7 8 8 7 7 7 6 5 7 9 10 10 10 11 11 12 13 14 14 12 10 8 7 5 2 4 11 14 14 17 20 20 20 20 19 18 19 19 21 24 27 30 34 37 39 39 37 37 37 31 16 13 27 32 33
7 6 4 2 4 4 5 6 5 4 6 8 10 11 11 12 13 13 14 13 11 12 15 19 20 17 13 12 11 9 8 8 7 7 8 8 7 5 7 9 9 9 9 9 10 12 12 11 10 8 6 5 5 4 2 5 12 14 13 16 19 19 20 19 18 18 19 19 21 24 27 30 34 37 40 39 36 37 38 32 20 6 18 28 29
6 5 4 3 3 3 3 5 7 8 10 11 12 12 11 11 11 12 14 15 15 15 17 20 22 20 15 12 11 10 9 8 7 9 11 10 7 6 7 8 9 9 9 9 10 10 9 8 7 6 6 6 7 6 5 8 11 12 12 14 17 18 19 18 16 17 19 20 22 24 28 31 33 36 40 39 37 38 39 34 28 16 6 20 24
5 6 5 4 3 4 6 8 10 10 9 8 8 9 10 9 9 10 12 15 18 19 20 20 20 15 12 11 10 9 9 10 10 11 11 9 7 7 7 8 8 7 8 9 10 8 7 7 8 9 9 9 10 9 8 10 12 13 13 14 16 18 19 19 19 19 21 22 24 25 29 32 32 34 38 37 36 38 40 38 35 29 16 3 14
5 4 3 2 3 6 9 10 10 9 7 7 8 8 8 7 8 9 12 14 18 19 19 19 17 11 9 10 11 11 12 13 13 12 10 8 8 8 7 7 6 5 6 9 9 7 6 8 10 12 11 11 11 10 10 11 13 14 15 15 16 19 20 21 23 23 23 24 25 26 28 30 31 33 35 35 36 38 39 39 37 35 32 21 8
5 4 2 1 3 5 7 8 8 7 8 10 10 7 6 5 6 8 11 14 16 15 13 14 14 11 8 8 9 11 13 14 12 11 9 9 9 7 6 4 3 3 5 9 8 6 8 11 12 13 13 13 12 11 11 12 14 16 17 17 17 20 21 21 23 23 23 24 25 25 27 28 30 32 33 33 34 36 36 37 36 34 34 29 22
4 4 3 1 0 1 2 3 5 6 8 11 11 9 7 6 5 5 7 10 11 10 8 6 7 7 6 5 5 6 9 11 11 10 9 9 8 6 3 2 1 3 6 8 7 8 11 13 13 13 12 12 12 11 11 12 14 16 17 17 18 20 21 21 21 22 23 25 26 26 27 27 28 30 31 31 32 32 33 33 34 35 34 29 24
4 3 2 2 4 5 4 3 6 8 10 11 12 12 11 9 7 5 6 7 7 6 5 4 3 3 4 5 6 8 10 10 9 8 7 6 6 4 4 5 3 4 6 6 7 11 12 12 13 12 11 11 11 10 10 11 13 15 16 17 19 21 20 20 20 20 21 24 26 26 27 27 27 29 30 31 31 30 30 31 31 30 31 29 28
3 2 0 2 2 3 3 3 7 11 13 14 14 14 13 13 11 8 7 6 5 4 4 4 4 5 6 6 6 7 8 8 7 7 6 4 4 5 6 5 3 5 6 6 9 12 12 12 12 11 10 10 10 10 11 12 13 14 15 15 17 19 19 18 19 20 20 22 24 25 26 27 28 29 29 30 31 29 28 29 29 27 26 27 28
3 1 1 2 1 1 3 4 6 9 10 13 14 13 13 14 12 11 11 10 9 8 8 8 7 7 7 8 8 7 8 8 8 6 3 2 2 4 5 6 5 7 9 10 11 11 11 11 11 10 10 10 10 11 13 13 13 14 15 14 16 18 19 19 21 21 20 21 24 26 27 27 28 28 27 28 30 30 28 28 28 27 26 25 25
1 0 1 1 3 5 6 6 7 8 9 10 11 10 11 11 11 11 12 11 11 11 11 10 9 8 9 10 10 9 9 9 8 7 7 5 5 7 9 10 10 11 11 11 11 11 10 10 9 8 9 10 10 11 12 13 14 15 15 15 16 19 20 20 21 21 21 22 24 25 27 27 28 28 27 25 26 28 28 27 27 27 26 26 24
1 3 5 6 7 7 6 6 7 7 8 9 9 8 8 9 10 10 10 9 9 12 12 11 10 11 11 11 10 10 9 8 8 9 11 9 7 10 14 16 14 13 12 10 9 9 9 9 8 8 9 9 9 10 11 12 14 15 14 14 16 18 19 20 21 20 21 22 24 25 26 27 27 29 28 26 25 26 27 27 27 27 27 26 25
3 5 6 6 6 5 6 7 6 5 6 7 7 7 7 8 8 8 8 7 8 12 13 13 13 12 10 8 8 7 6 6 7 8 11 11 8 8 12 14 12 11 10 9 8 8 9 9 8 8 9 9 9 9 10 11 12 14 14 14 14 16 18 19 20 20 21 22 24 25 26 26 26 27 27 26 25 26 27 28 27 27 27 28 27
1 1 2 2 2 4 7 7 5 4 5 6 6 6 7 7 8 8 8 7 9 12 14 14 13 11 8 6 5 4 3 4 4 4 7 10 10 9 9 9 9 8 8 9 9 9 9 8 7 7 9 10 10 9 10 11 12 12 13 13 13 14 16 18 20 21 21 22 24 25 25 26 26 26 26 26 25 25 26 27 27 27 27 28 26
5 5 4 2 3 5 7 6 4 3 4 5 6 7 8 9 9 8 8 8 11 13 13 13 13 11 8 7 6 4 3 3 3 6 9 10 11 11 10 8 8 8 7 7 8 8 8 7 7 7 8 10 10 9 9 10 11 11 12 13 13 14 16 17 19 20 21 21 22 23 24 25 26 25 25 25 25 25 24 25 25 25 25 25 25
8 7 5 5 5 6 5 4 4 4 5 7 8 9 10 10 10 10 11 12 13 13 12 13 13 10 7 4 4 4 3 3 7 11 12 11 11 11 9 8 9 8 7 7 8 8 7 7 8 7 8 9 10 9 8 8 9 10 11 12 12 13 13 15 16 18 19 20 20 22 23 24 25 25 25 25 24 24 23 23 24 24 23 24 25
9 8 6 5 7 7 6 5 6 7 8 9 9 9 9 8 8 11 13 13 12 11 10 10 8 5 2 2 2 4 6 7 9 11 12 12 11 10 8 7 8 9 9 8 9 9 8 7 7 8 8 8 8 9 8 8 8 8 10 11 12 12 12 13 15 17 18 18 19 21 21 22 23 24 24 24 24 24 23 22 23 23 24 24 25
9 8 6 5 7 8 7 6 7 8 9 9 8 9 8 6 7 10 12 11 10 11 10 8 5 3 2 2 4 6 7 7 8 10 12 13 11 10 8 6 5 6 6 6 7 8 8 7 6 7 8 7 7 8 8 9 8 8 8 11 12 12 12 12 14 16 17 18 19 20 20 21 22 23 23 23 23 24 24 23 23 23 24 24 24
8 8 6 6 7 9 9 8 8 9 9 8 7 7 7 6 7 8 7 7 9 12 11 9 7 5 3 5 6 6 6 7 8 10 11 11 10 10 8 6 5 4 4 4 5 7 7 7 7 7 7 6 6 6 8 10 10 9 9 11 12 13 12 12 14 16 18 18 18 19 20 21 21 22 22 22 23 23 23 23 23 24 24 24 23
7 8 7 7 8 9 10 9 9 8 8 7 7 7 6 6 6 6 5 5 8 12 13 11 9 7 7 8 8 7 7 6 7 8 9 10 9 7 5 4 4 4 4 4 6 6 5 6 7 8 8 6 5 5 7 9 11 11 11 12 13 13 12 13 14 16 17 17 17 19 19 20 20 21 21 22 22 23 24 23 23 23 24 24 23
7 7 7 8 9 10 10 9 9 9 9 8 7 6 5 3 3 4 4 4 5 9 12 13 11 10 10 12 10 7 6 5 5 5 6 6 5 4 3 3 4 6 5 5 6 5 4 5 5 6 6 6 5 5 7 9 11 11 11 12 12 13 13 12 13 15 16 16 17 18 19 19 19 19 20 21 22 23 24 23 22 22 24 25 24
6 6 7 9 10 10 10 10 9 8 8 9 9 7 6 5 3 3 4 4 4 6 10 13 14 12 12 13 13 9 6 5 5 5 5 5 4 4 4 4 5 7 8 7 6 5 4 4 5 5 4 4 3 4 7 9 10 10 10 11 11 11 11 11 12 13 15 15 16 18 19 19 18 17 18 20 21 23 23 23 21 21 23 24 24
6 5 6 9 9 9 10 11 10 8 8 11 11 9 7 6 6 7 9 8 6 5 5 8 12 14 15 14 11 8 5 6 8 7 7 8 6 4 5 8 9 9 8 8 7 6 5 4 4 5 4 3 1 3 7 10 10 9 9 10 9 9 9 10 11 12 13 14 15 17 19 19 18 16 17 19 21 23 23 23 22 22 22 24 25
7 6 7 9 8 8 10 12 13 12 11 11 11 10 9 9 9 9 10 10 9 7 6 6 8 14 18 16 10 6 5 8 11 11 10 9 7 4 5 10 11 9 7 7 6 6 6 5 4 4 4 2 0 3 7 10 10 9 8 8 8 7 8 8 9 11 12 13 14 16 17 18 17 16 18 20 21 22 23 23 22 22 22 23 24
5 7 9 11 11 10 11 13 15 14 13 12 12 11 11 11 10 10 10 10 9 7 6 6 8 11 13 13 11 9 8 9 13 15 13 10 10 8 7 9 10 8 6 5 5 5 6 6 5 5 6 4 2 1 6 10 11 9 8 8 7 6 6 7 8 10 11 12 13 15 16 16 15 15 18 20 19 20 22 22 21 22 22 23 24
7 6 7 9 10 11 13 14 15 14 12 11 12 14 15 14 14 15 15 12 10 7 5 6 8 10 12 13 13 12 9 7 10 15 16 15 13 11 7 6 7 8 7 6 5 4 5 6 6 7 8 6 3 1 4 10 11 8 7 8 7 4 4 5 7 9 11 12 13 14 15 13 12 14 18 19 18 18 21 21 20 20 22 23 23
8 7 5 4 4 5 6 9 11 11 10 10 10 11 13 13 13 14 14 12 9 7 7 5 4 7 12 13 12 11 9 6 8 13 16 16 14 10 8 7 9 9 8 7 7 6 6 7 8 9 9 7 5 3 3 9 10 8 7 8 7 4 3 4 6 9 10 11 12 13 13 12 11 13 17 19 18 17 19 19 18 18 21 23 23
Wind_Direction
184 185 190 194 195 197 200 203 205 209 215 223 232 239 243 248 251 252 252 252 251 257 265 264 261 269 273 276 281 286 288 291 296 298 293 289 287 287 294 299 295 292 296 298 299 304 304 295 293 300 305 298 292 304 320 328 325 323 326 325 326 333 325 307 294 298 309 312 310 307 306 301 293 286 283 282 281 277 274 274 272 262 250 247 248
184 186 189 192 195 198 200 204 207 213 219 224 229 235 243 250 255 256 255 255 254 258 262 258 259 271 273 272 274 273 279 293 296 292 290 291 286 282 291 295 293 294 294 293 296 302 299 291 290 294 294 288 288 298 310 318 318 319 322 322 318 323 325 310 298 296 306 313 314 311 310 305 294 287 282 278 278 277 272 270 271 266 257 252 249
185 187 189 192 195 198 203 208 210 213 216 219 225 232 242 252 259 263 263 262 258 258 260 256 260 272 277 276 272 264 272 291 303 303 297 293 287 282 285 286 286 291 293 291 293 296 290 285 287 289 284 281 285 291 299 307 312 313 316 318 313 314 318 314 304 298 301 309 312 311 310 307 296 289 285 278 275 275 272 270 269 269 267 262 256
187 187 189 191 195 200 205 209 209 210 213 218 226 233 242 251 256 257 259 260 259 261 266 266 274 282 286 284 271 256 264 290 314 319 308 295 290 288 290 291 288 289 292 291 291 293 291 288 289 287 278 274 278 282 288 298 305 306 309 313 311 310 314 314 306 301 299 304 308 308 306 305 298 290 285 281 276 272 271 270 268 266 267 267 264
186 187 188 189 193 198 204 210 211 211 214 222 231 239 243 244 245 247 252 255 260 274 285 293 301 303 307 302 273 254 275 303 315 318 306 297 298 297 300 303 301 301 301 299 294 290 289 290 293 290 280 276 276 276 280 290 297 300 305 310 310 309 311 313 308 303 300 300 303 306 305 302 298 291 285 280 276 273 270 268 265 263 263 264 263
187 187 187 188 190 195 204 212 214 214 216 221 227 232 237 243 252 262 260 258 270 280 285 294 305 310 320 331 305 293 304 310 309 305 293 292 300 302 303 306 309 311 311 309 305 296 289 292 295 291 285 286 283 277 278 284 291 298 303 307 309 309 308 310 309 305 301 299 300 302 302 301 299 294 289 283 276 272 270 269 266 262 260 261 260
185 184 185 187 191 197 205 211 213 215 218 220 224 229 237 245 249 247 246 257 272 276 281 290 298 305 308 308 310 310 309 305 299 289 277 283 294 295 296 303 313 320 318 314 309 299 294 297 295 290 290 292 285 276 276 282 290 299 302 304 307 307 305 307 308 305 302 301 299 299 300 300 299 296 295 291 281 274 270 267 267 264 259 257 255
182 184 186 188 193 201 207 208 210 212 214 219 226 230 233 236 235 238 249 261 270 273 277 282 285 292 296 300 306 307 307 301 288 276 276 285 290 286 285 295 310 320 320 314 308 301 298 298 293 291 297 299 289 276 276 286 295 298 300 303 306 305 304 305 305 303 302 300 300 300 301 301 301 300 299 294 283 274 269 262 261 262 259 255 251
180 185 187 191 198 205 207 207 209 211 211 215 221 223 226 230 234 244 254 259 263 269 272 271 278 287 291 296 299 300 303 298 285 282 288 288 285 283 280 284 295 307 315 317 313 306 302 299 295 297 305 307 297 283 280 288 293 294 299 305 305 304 305 305 303 301 301 301 302 303 304 303 302 302 301 295 286 280 274 265 260 260 260 257 253
177 180 185 196 204 205 205 205 208 211 211 214 219 223 228 233 236 241 244 245 251 258 261 264 274 281 281 285 294 296 295 289 284 288 289 285 282 278 273 275 285 298 310 315 312 306 302 300 298 301 307 309 302 291 288 291 292 293 300 304 304 305 306 303 301 301 301 302 302 304 305 303 302 300 297 296 294 290 281 269 263 263 260 256 256
171 174 182 199 204 202 202 204 206 209 212 216 220 226 231 232 233 236 237 239 246 250 255 262 269 271 272 280 291 292 285 283 285 287 287 286 282 273 266 274 287 297 306 310 308 304 299 297 300 304 309 310 306 298 297 299 297 297 300 300 301 305 304 298 297 300 302 300 301 302 301 299 301 300 295 293 294 293 286 275 264 260 256 252 254
167 174 189 206 203 199 201 204 206 210 213 217 221 225 228 230 232 235 237 239 245 249 251 257 263 267 270 276 286 288 286 285 286 285 287 288 283 273 268 275 286 296 306 308 305 300 297 299 304 310 313 314 310 304 301 302 300 298 297 298 302 308 308 302 298 298 298 297 298 300 300 299 300 298 294 293 292 291 290 283 271 258 250 247 248
185 196 213 214 208 206 208 209 210 212 214 217 222 224 227 230 233 235 237 242 248 251 250 253 261 267 268 272 280 284 284 283 281 281 289 296 288 271 268 276 284 293 303 306 303 298 298 303 310 316 319 318 317 314 309 305 302 298 297 302 307 311 315 313 307 304 302 298 296 298 302 303 300 296 294 292 288 286 286 283 278 265 250 246 248
201 211 216 213 210 211 213 212 213 215 216 219 222 224 227 230 233 235 237 242 248 251 252 254 259 262 263 269 280 284 280 273 268 279 299 307 295 271 267 274 280 289 298 301 300 300 303 307 312 316 320 319 319 320 316 308 303 301 302 308 312 315 319 320 319 318 315 309 302 302 307 307 301 296 296 291 283 277 274 274 276 270 258 253 253
205 209 208 207 209 211 212 213 215 217 218 220 223 225 227 229 231 233 235 238 242 248 252 255 257 259 262 272 280 281 273 261 263 282 298 305 296 280 273 271 277 289 298 300 300 300 303 308 312 314 317 319 319 317 311 305 304 305 308 311 313 315 320 322 324 324 323 320 314 309 311 312 307 302 300 294 285 276 269 266 267 269 269 266 259
206 205 205 206 209 211 212 213 215 218 218 220 223 225 226 228 230 231 232 235 238 243 248 251 255 258 263 270 273 271 263 261 275 286 289 298 302 290 276 274 285 296 299 299 298 298 302 308 311 315 319 320 317 310 305 305 306 308 309 310 311 316 321 324 327 329 328 327 323 319 319 318 315 312 308 302 293 283 273 264 259 261 266 267 257
207 204 206 210 212 212 214 215 217 219 219 220 224 226 226 228 229 229 231 234 236 241 245 247 254 260 262 262 262 262 262 270 283 285 281 293 305 293 274 281 298 302 302 302 299 301 307 308 308 314 318 319 315 309 307 310 311 309 308 307 309 315 321 326 329 330 331 330 329 329 327 324 320 318 315 310 303 293 275 256 248 249 251 253 249
208 205 208 213 214 214 216 218 219 221 221 223 225 226 226 227 228 229 230 232 236 240 243 247 253 255 255 257 258 258 260 267 273 272 276 294 301 286 269 288 306 309 312 311 307 305 303 300 305 312 314 317 316 310 311 317 316 312 309 309 310 313 318 323 326 328 331 333 333 332 330 327 324 322 320 318 313 304 281 254 243 237 234 237 238
207 208 212 215 216 217 218 220 222 224 225 227 228 227 228 228 228 229 230 232 237 241 243 245 246 245 251 262 264 255 248 253 260 262 277 297 297 272 260 288 311 317 316 311 308 306 300 301 311 314 309 313 312 306 311 319 317 311 311 311 309 308 314 321 324 328 333 335 334 332 332 330 328 326 326 325 321 316 301 270 245 229 224 231 232
208 211 215 216 218 221 222 222 224 226 228 229 228 227 229 229 227 227 228 230 237 242 243 240 238 242 254 259 251 234 228 241 258 272 290 302 291 262 258 290 313 316 312 307 307 308 308 314 322 317 310 311 308 304 312 315 309 307 314 313 308 308 316 324 328 332 336 335 332 332 333 332 331 329 328 329 327 325 320 295 254 227 218 226 226
210 212 216 219 221 225 226 226 228 230 232 234 235 235 237 236 230 227 228 232 238 241 240 236 234 241 251 245 230 228 241 256 270 284 297 298 280 258 261 295 315 315 312 309 306 309 315 322 325 322 317 310 303 306 313 310 300 309 323 322 317 318 322 326 331 337 340 337 333 333 334 334 333 331 329 329 331 330 327 314 271 233 218 219 222
216 219 221 225 226 228 231 232 232 233 235 249 274 272 267 267 262 250 246 248 248 241 230 227 234 237 235 234 240 251 261 268 276 284 289 283 265 254 267 302 318 317 312 310 309 313 319 322 323 323 317 307 304 308 313 307 298 320 333 334 330 330 330 329 335 345 347 341 335 333 333 334 333 333 331 331 333 332 330 323 290 241 222 219 220
217 222 224 228 229 231 235 235 233 238 243 245 249 250 249 254 259 256 255 259 267 264 244 225 228 235 235 237 247 257 261 264 268 271 270 261 252 254 283 312 321 318 309 307 311 316 319 320 319 316 311 307 308 313 317 315 328 345 351 352 349 347 346 346 351 354 350 345 338 332 333 335 334 333 332 333 334 333 331 328 301 245 224 219 219
209 221 226 231 234 235 236 233 230 239 241 239 249 259 253 247 247 257 264 264 271 282 283 270 246 240 245 249 251 253 256 258 257 255 249 238 236 258 301 317 318 311 301 305 313 315 315 316 313 311 311 310 314 329 337 348 5 7 2 360 1 4 5 4 2 355 349 347 341 333 332 337 337 334 333 334 334 334 333 334 313 242 223 218 217
213 230 240 249 251 242 229 223 225 231 225 219 248 261 253 244 240 245 250 247 247 270 288 293 281 258 248 253 256 250 243 248 247 237 229 226 232 268 308 313 308 299 296 302 306 303 305 309 308 310 319 324 338 8 23 4 11 11 1 358 5 11 12 8 2 355 350 348 342 334 333 339 341 339 337 337 339 341 343 344 334 241 220 217 216
201 216 231 250 269 250 218 221 241 255 259 261 263 264 257 243 233 228 231 239 244 248 263 277 278 270 260 260 258 242 226 230 227 214 215 224 239 275 302 301 295 294 293 292 292 293 301 309 313 323 343 357 13 36 36 5 9 8 359 357 3 9 10 5 358 353 350 348 344 337 336 341 344 344 345 345 346 350 351 352 352 299 219 212 211
196 198 210 226 255 263 253 266 279 284 287 288 283 277 269 251 234 227 229 237 246 252 256 260 262 264 263 255 244 226 211 206 202 205 213 224 247 283 298 292 291 297 298 295 298 305 312 327 350 11 35 54 55 51 38 16 9 4 359 359 1 5 6 4 358 352 349 349 347 344 345 347 348 349 349 349 351 355 358 1 6 6 254 212 205
192 190 199 215 249 279 281 282 284 283 285 286 273 260 255 247 235 230 232 238 244 251 253 250 250 255 251 233 208 185 189 206 217 219 221 235 267 293 296 291 295 305 311 312 315 322 335 4 40 62 74 71 59 47 30 16 8 5 4 2 2 3 5 8 7 0 356 355 353 353 353 352 351 351 351 350 352 358 3 9 14 20 19 257 210
164 160 174 226 269 277 271 267 270 266 246 229 222 219 224 236 237 231 236 244 247 247 246 246 249 252 239 217 195 183 202 224 230 227 232 257 285 292 288 290 301 318 329 329 327 335 4 37 61 70 67 59 49 36 22 12 6 4 4 4 5 5 6 9 9 3 358 358 357 357 357 353 352 353 354 353 354 358 6 13 16 22 27 22 351
170 162 171 233 266 264 253 247 252 244 220 211 208 200 202 221 226 223 230 242 250 253 252 251 250 247 233 217 207 215 230 236 229 225 241 266 277 274 271 282 311 347 347 346 352 14 45 60 65 60 54 51 43 28 19 14 7 3 3 3 4 6 6 8 7 3 360 359 359 1 360 355 354 355 354 353 355 359 7 14 17 23 28 25 16
171 176 190 192 104 115 187 213 228 221 211 211 208 198 191 193 194 200 215 228 243 256 261 257 251 247 238 220 197 202 217 220 219 224 240 253 253 245 232 193 105 28 2 7 32 60 70 70 63 55 51 49 40 26 19 18 12 7 5 5 5 7 7 6 5 4 2 1 1 5 3 357 355 357 355 354 355 358 5 11 17 22 25 23 22
163 188 192 104 85 89 107 169 193 187 186 195 199 195 192 191 182 169 179 198 218 239 255 265 261 234 214 207 190 176 180 190 202 211 217 228 230 206 160 136 108 25 1 19 64 79 78 72 63 57 52 47 39 29 25 24 19 13 11 9 7 9 9 7 8 9 6 2 2 4 3 358 356 358 359 358 357 358 2 7 13 18 22 23 23
190 219 294 45 65 71 76 161 184 181 179 182 185 188 195 201 197 183 171 168 174 187 194 192 181 164 159 166 169 163 161 163 173 184 191 202 202 182 167 158 116 43 37 70 87 83 79 72 64 60 56 51 45 38 35 33 25 18 16 14 10 10 11 11 15 17 12 6 4 4 4 3 1 359 360 2 2 1 1 6 10 11 16 22 23
191 225 321 315 261 150 98 134 172 180 179 179 184 192 203 209 202 186 172 163 159 165 166 162 163 160 149 144 146 147 148 153 157 157 151 158 181 182 192 191 155 93 82 91 91 84 81 75 65 61 59 54 48 41 37 34 27 20 18 17 13 13 14 16 20 20 15 11 10 8 7 7 6 2 359 1 4 4 3 7 11 11 12 19 20
189 240 32 80 122 125 117 122 143 161 168 173 180 192 205 212 208 195 188 181 172 168 166 161 156 148 138 134 134 134 134 133 125 105 85 85 110 116 116 123 118 99 89 89 87 85 86 81 70 63 58 51 44 38 34 29 25 23 23 19 15 16 18 20 22 22 18 15 13 11 9 8 8 6 3 2 6 7 5 6 11 12 11 15 17
124 111 110 104 103 109 114 119 132 151 166 173 179 186 198 211 217 214 212 206 188 174 166 156 145 137 130 126 126 127 124 116 105 91 81 81 99 109 104 99 96 90 83 81 86 89 87 82 76 68 57 49 43 39 35 30 24 23 25 25 21 19 21 22 23 24 22 19 17 13 10 8 8 8 7 5 7 9 8 8 12 14 14 16 16
105 98 103 105 101 109 125 131 134 149 168 176 185 192 194 199 208 214 217 209 186 173 166 156 143 133 126 124 131 139 139 131 116 94 82 83 93 107 104 100 99 96 84 74 81 93 88 77 73 67 58 50 43 41 39 34 26 21 23 27 28 25 23 24 26 26 24 21 19 16 12 9 8 8 8 7 6 9 10 11 13 15 16 19 20
203 171 146 130 103 121 138 140 138 158 177 184 193 197 191 187 193 201 204 191 172 168 167 161 151 142 141 154 164 166 173 179 170 133 106 101 101 102 103 103 104 103 90 73 75 87 86 74 65 62 58 51 42 39 39 37 31 22 18 23 31 31 26 25 28 29 27 24 21 17 14 12 10 9 9 8 7 8 11 12 14 14 15 18 18
197 183 176 161 124 133 146 151 148 162 176 179 178 172 162 157 160 167 168 161 156 157 159 158 157 159 169 184 193 202 228 236 180 150 138 126 116 110 107 109 116 122 111 83 75 83 87 77 65 59 58 51 43 36 34 35 34 27 18 18 26 30 26 26 28 28 26 24 22 18 16 14 12 11 11 10 9 10 11 13 16 16 14 13 14
161 150 147 147 140 143 153 154 140 143 152 156 156 150 144 145 150 152 151 151 151 152 154 156 159 166 178 196 208 206 188 136 134 143 145 141 134 125 113 106 110 118 116 97 83 82 82 74 64 58 57 54 46 40 34 32 33 32 25 19 21 25 26 28 30 29 26 24 21 19 16 14 14 13 14 13 12 12 13 14 16 17 16 15 15
138 134 133 140 143 143 141 140 140 142 145 149 148 143 142 149 155 153 152 153 155 158 160 158 154 154 170 185 164 139 117 109 120 135 137 132 130 127 120 110 102 100 102 101 91 80 76 76 70 61 55 51 45 39 33 27 25 29 30 26 23 25 29 32 33 32 29 25 22 20 18 16 15 15 14 15 15 15 16 16 16 17 17 17 17
128 129 127 135 144 143 139 139 144 146 149 153 156 156 158 157 151 149 150 153 157 159 158 156 148 126 109 140 135 116 105 103 111 121 128 130 125 117 114 116 110 100 101 107 99 85 81 84 78 61 50 46 41 32 27 24 22 25 31 31 30 31 34 36 37 35 31 27 25 24 23 21 18 16 16 17 17 16 17 18 17 17 17 17 18
122 124 125 129 137 141 141 141 141 144 150 155 154 156 160 156 149 149 150 157 168 171 170 165 156 139 143 164 153 128 113 110 109 114 126 132 129 124 119 113 107 99 92 108 115 99 80 77 79 69 58 51 38 24 22 23 26 32 35 34 36 38 39 39 39 36 32 28 27 27 28 26 21 18 19 20 18 17 18 18 18 18 18 16 18
123 125 127 125 127 134 140 143 144 145 148 148 145 150 156 150 142 142 136 133 157 173 179 176 164 150 158 169 158 132 122 121 112 114 125 125 122 128 132 118 120 127 106 95 110 108 84 80 90 85 75 69 50 23 18 21 28 36 37 33 38 45 45 42 41 35 29 26 26 28 30 29 24 21 22 22 20 18 17 17 17 19 19 18 18
140 149 158 157 153 150 148 150 153 155 156 156 155 157 165 155 130 134 142 139 154 177 188 190 182 166 156 157 153 144 144 145 130 125 133 127 121 136 141 117 138 159 146 112 108 115 106 99 100 94 89 86 66 28 14 17 26 35 36 33 38 46 46 44 41 36 30 28 29 30 30 31 27 23 23 24 22 18 17 18 20 20 20 19 18
155 170 172 164 160 161 163 168 175 176 174 174 172 170 179 191 202 217 212 190 164 170 185 193 194 181 160 153 154 155 161 169 168 162 157 153 158 185 193 170 147 145 139 123 114 122 127 114 103 106 114 108 73 25 13 16 24 32 35 34 39 46 48 47 44 39 35 33 33 33 34 34 30 26 25 27 26 21 19 22 25 24 22 21 20
174 182 171 161 163 170 174 179 187 191 189 188 189 189 192 197 214 233 227 210 190 180 199 210 200 182 168 164 164 161 166 184 189 191 193 194 202 225 220 195 174 156 141 130 120 117 124 125 118 121 131 130 75 24 21 22 25 29 31 32 35 44 50 51 46 41 40 39 37 37 37 37 34 32 31 31 29 24 22 25 28 28 26 24 23
193 191 179 173 178 187 187 186 192 201 209 210 208 212 218 218 220 230 229 218 207 204 217 227 203 178 170 172 176 180 192 198 197 197 197 191 181 160 150 158 162 161 153 146 141 135 133 129 127 141 160 177 321 17 23 23 22 24 28 29 29 36 46 51 49 45 45 45 44 42 40 38 38 37 35 33 30 27 27 28 29 29 29 27 26
230 226 214 203 201 207 210 208 210 218 230 231 223 221 228 227 225 227 222 207 191 186 196 221 227 208 193 187 188 194 202 204 202 201 195 174 155 150 148 146 149 155 153 148 152 158 151 142 144 169 186 200 232 346 14 14 12 14 22 27 27 32 46 53 52 49 49 49 48 44 40 37 37 39 40 37 32 31 33 33 31 31 31 29 28
307 282 243 220 215 219 224 228 230 233 239 242 236 230 227 225 229 233 224 201 181 184 210 232 235 220 200 184 174 171 171 180 191 192 187 173 168 176 183 167 159 162 157 149 152 160 157 153 161 177 185 190 201 226 5 11 10 9 13 16 18 32 63 67 60 56 53 51 48 43 38 32 33 39 42 39 34 35 38 37 34 34 33 30 29
341 352 0 341 305 273 237 225 227 232 242 252 250 239 230 226 228 228 215 192 178 190 204 209 210 192 179 170 161 153 150 157 171 175 174 174 176 181 181 172 170 169 166 166 172 170 157 155 171 188 192 186 181 179 31 25 24 21 12 7 7 22 72 83 73 64 59 55 51 44 35 29 33 42 44 39 34 37 42 40 37 37 37 34 34